User: anonymous   Login
Location: Caltech
(34.1382°N, 118.1253°W)
Time: 11:47:05
(UTC-07:00)
Language:

Cosmos 2084 - Orbit

View from above orbital plane
View from above orbital plane
View from above satellite
View from above satellite

Ground track
Ground track

The orbit data is extracted from the following two-line orbital elements,

1 20663U 90055A   16121.53839650  .00000355  00000-0  49394-4 0  9992
2 20663  62.7920 164.9451 0119836  48.7257 312.4082 14.91149384398268
Epoch (UTC): 30 April 2016 12:55:17
Eccentricity: 0.0119836
inclination: 62.7920°
perigee height: 511 km
apogee height: 678 km
right ascension of ascending node: 164.9451°
argument of perigee: 48.7257°
revolutions per day: 14.91149384
mean anomaly at epoch: 312.4082°
orbit number at epoch: 39826

The dashed part of the orbit path shows where the satellite is in the earth's shadow,  

DLR